EW5773 Weather Reports


Display with metric or nautical units.
time (UTC)temp
F
wind
direction
speed
MPH
gust
MPH
rain 1hr
in
rain 24hr
in
rain mn
in
humidity
%
barometer
mb
20260502151504 67 224 6.0 16.0 0.00 0.00 0.00 63 1014.8
20260502123011 70 237 8.0 13.0 0.00 0.00 0.00 48 1015.7
20260502121510 70 188 6.0 15.0 0.00 0.00 0.00 49 1015.7
20260502114507 71 138 9.0 14.0 0.00 0.00 0.00 43 1015.9
20260502113013 71 107 9.0 19.0 0.00 0.00 0.00 43 1016.0
20260502111505 71 109 9.0 15.0 0.00 0.00 0.00 44 1016.0
20260502110005 71 119 7.0 15.0 0.00 0.00 0.00 43 1016.0
20260502104504 70 127 8.0 15.0 0.00 0.00 0.00 47 1016.2
20260502103003 70 140 5.0 12.0 0.00 0.00 0.00 48 1016.1
20260502101503 70 110 7.0 14.0 0.00 0.00 0.00 48 1016.3
20260502100118 70 135 6.0 12.0 0.00 0.00 0.00 51 1016.3
20260502091519 66 155 6.0 12.0 0.00 0.00 0.00 61 1017.1
20260502071509 56 360 0.0 3.0 0.00 0.00 0.00 94 1018.0
20260502070014 55 360 1.0 4.0 0.00 0.00 0.00 94 1017.9
20260502064515 53 286 0.0 3.0 0.00 0.00 0.00 93 1017.9
20260502063009 52 284 0.0 3.0 0.00 0.00 0.00 93 1018.0
20260502061505 51 280 0.0 2.0 0.00 0.00 0.00 93 1018.0
20260502060006 51 279 1.0 3.0 0.00 0.00 0.00 93 1018.0
20260502054504 51 279 0.0 2.0 0.00 0.00 0.00 92 1018.2
20260502051521 50 278 2.0 4.0 0.00 0.00 0.00 92 1018.2
20260502050023 51 274 0.0 2.0 0.00 0.00 0.00 92 1018.2
20260502044513 51 272 0.0 0.0 0.00 0.00 0.00 92 1018.4
20260502043015 52 272 0.0 0.0 0.00 0.00 0.00 92 1018.4
20260502041510 52 271 0.0 0.0 0.00 0.00 0.00 92 1018.5
20260502040013 52 271 0.0 0.0 0.00 0.00 0.00 92 1018.5
20260502034511 52 271 0.0 0.0 0.00 0.00 0.00 91 1018.4
20260502033008 52 271 0.0 0.0 0.00 0.00 0.00 91 1018.6
20260502031505 52 271 0.0 0.0 0.00 0.00 0.00 91 1018.7
20260502030003 53 271 0.0 2.0 0.00 0.00 0.00 91 1018.8
20260502024502 53 271 0.0 2.0 0.00 0.00 0.00 91 1018.6
20260502023018 54 271 0.0 3.0 0.00 0.00 0.00 90 1018.6
20260502021516 54 270 1.0 3.0 0.00 0.00 0.00 90 1018.7
20260502020021 54 270 0.0 1.0 0.00 0.00 0.00 90 1018.9
20260502014513 54 270 0.0 0.0 0.00 0.00 0.00 90 1019.0
20260502013015 54 270 0.0 0.0 0.00 0.00 0.00 90 1019.3
20260502011534 55 270 0.0 2.0 0.00 0.00 0.00 90 1019.5
20260502010008 55 270 0.0 1.0 0.00 0.00 0.00 89 1019.7
20260502004511 55 270 0.0 0.0 0.00 0.00 0.00 89 1019.6
20260502003012 55 270 0.0 2.0 0.00 0.00 0.00 89 1019.7
20260502001508 56 270 0.0 1.0 0.00 0.00 0.00 88 1019.7
20260502000009 56 270 0.0 0.0 0.00 0.00 0.00 88 1019.8
20260501234504 56 270 0.0 2.0 0.00 0.00 0.00 88 1020.0
20260501233005 57 270 0.0 3.0 0.00 0.00 0.00 88 1020.1
20260501231612 57 264 1.0 4.0 0.00 0.00 0.00 87 1020.1
20260501230021 58 259 2.0 8.0 0.00 0.00 0.00 85 1020.1
20260501224520 59 275 0.0 0.0 0.00 0.00 0.00 84 1020.0
20260501223114 60 275 0.0 3.0 0.00 0.00 0.00 84 1020.1
20260501221525 60 275 0.0 2.0 0.00 0.00 0.00 85 1020.0
20260501220016 60 275 0.0 0.0 0.00 0.00 0.00 85 1020.0
20260501214515 60 275 0.0 1.0 0.00 0.00 0.00 85 1020.0
20260501213018 60 275 0.0 2.0 0.00 0.00 0.00 84 1019.9
20260501211509 60 275 0.0 1.0 0.00 0.00 0.00 84 1020.0
20260501210012 60 275 0.0 1.0 0.00 0.00 0.00 84 1020.0
20260501204537 60 275 0.0 3.0 0.00 0.00 0.00 84 1020.1
20260501203003 61 276 0.0 6.0 0.00 0.00 0.00 83 1020.2
20260501201502 61 299 1.0 3.0 0.00 0.00 0.00 82 1020.3
20260501200004 61 302 0.0 0.0 0.00 0.00 0.00 81 1020.0
20260501194603 62 304 1.0 3.0 0.00 0.00 0.00 80 1020.3
20260501193033 62 302 3.0 5.0 0.00 0.00 0.00 79 1019.9
20260501191528 63 360 3.0 6.0 0.00 0.00 0.00 78 1019.7
20260501190043 64 360 4.0 10.0 0.00 0.00 0.00 78 1019.8
20260501184557 65 360 2.0 9.0 0.00 0.00 0.00 76 1019.7
20260501183020 67 360 3.0 6.0 0.00 0.00 0.00 74 1019.4
20260501181512 67 360 2.0 5.0 0.00 0.00 0.00 72 1019.2
20260501180012 68 360 0.0 9.0 0.00 0.00 0.00 73 1019.1
20260501174514 69 360 2.0 4.0 0.00 0.00 0.00 71 1019.0
20260501173007 69 231 1.0 3.0 0.00 0.00 0.00 69 1018.7
20260501171505 70 230 3.0 6.0 0.00 0.00 0.00 68 1018.9
20260501170005 70 229 1.0 6.0 0.00 0.00 0.00 67 1018.9
20260501164509 70 204 1.0 6.0 0.00 0.00 0.00 68 1019.0
20260501163006 71 201 3.0 10.0 0.00 0.00 0.00 66 1018.8
20260501161505 73 188 5.0 15.0 0.00 0.00 0.00 63 1018.6
20260501160004 73 227 6.0 12.0 0.00 0.00 0.00 61 1018.7
20260501154631 73 113 6.0 12.0 0.00 0.00 0.00 60 1018.8